Regional Weather Roundup
Issued by NWS Sterling, VA

Home | Current Version | Previous Version | Graphics & Text | Print | Product List | Glossary On
Versions: 1 2 3 4 5 6 7 8 9 10 11 12 13 14 15 16 17 18 19 20 21 22 23 24 25 26 27 28 29 30 31 32 33 34 35 36 37 38 39 40 41 42 43 44 45 46 47 48
000
ASUS41 KLWX 280610
RWRLWX

REGIONAL WEATHER ROUNDUP
NATIONAL WEATHER SERVICE BALTIMORE MD/WASHINGTON DC
200 AM EDT TUE JUL 28 2015

Note: "FAIR" indicates few or no clouds below 12,000 feet
with no significant weather and/or obstructions to visibility.
 TC=TEMPERATURE CELSIUS

 * =Non NWS site. Station does not report precipitation (e.g. rain,
    snow, etc.), thunder, or fog.

DCZ001-MDZ009-015-VAZ040>042-051-053>054-280700-
WASHINGTON METRO

CITY           SKY/WX    TMP DP  RH WIND       PRES   REMARKS
WASHINGTON NAT PTCLDY    77  72  84 S6        30.01F
DULLES         PTCLDY    71  70  96 CALM      30.02S
ANDREWS AFB    CLEAR     73  71  94 SW2       30.01S
FT BELVOIR     PTCLDY    72  70  94 CALM      30.01S
QUANTICO       PTCLDY    75  67  76 CALM      30.01F
COLLEGE PARK*  PTCLDY    72  72 100 CALM      30.01S
LEESBURG*      CLEAR     72  72 100 W7        30.03S
MANASSAS*      CLEAR     72  72 100 CALM      30.01F
GAITHERSBURG*  CLEAR     70  66  88 CALM      30.06S

$$

MDZ006>007-011-014-280700-
BALTIMORE METRO

CITY           SKY/WX    TMP DP  RH WIND       PRES   REMARKS
BWI AIRPORT    PTCLDY    75  73  93 CALM      30.00F
MD SCIENCE CTR   N/A     78  74  87 MISG      30.01S
MARTIN STATE   MOCLDY    77  77 100 CALM      30.02S
ANNAPOLIS      CLEAR     76  70  82 SW3       30.00F
FORT MEADE*    PTCLDY    70  68  94 CALM      30.03S

$$

MDZ012-015-019>023-280700-
MARYLAND EASTERN SHORE

CITY           SKY/WX    TMP DP  RH WIND       PRES   REMARKS
OCEAN CITY     CLOUDY    77  72  84 SW6       30.01F
SALISBURY      CLEAR     71  71 100 CALM      30.01F
BAY BRIDGE AP*   N/A     77  72  83 SW5       30.01S
CAMBRIDGE*     CLEAR     73  70  88 CALM      30.01S
EASTON*        CLEAR     75  75 100 S3        30.05S

$$

MDZ017>025-280700-
SOUTHERN MARYLAND

CITY           SKY/WX    TMP DP  RH WIND       PRES   REMARKS
PATUXENT RIVER MOCLDY    72  69  90 CALM      30.01R
ST INIGOES     MOCLDY    72  69  90 CALM      30.00S
LEONARDTOWN*   CLOUDY    70  68  94 CALM      30.03S

$$

MDZ003>005-280700-
NORTH CENTRAL MARYLAND

CITY           SKY/WX    TMP DP  RH WIND       PRES   REMARKS
FREDERICK*       N/A    N/A N/A N/A MISG        N/A
HAGERSTOWN APT CLEAR     75  70  84 NE3       30.03S
WESTMINSTER*   CLEAR     72  72 100 CALM      30.04S FOG

$$

MDZ501>502-280700-
WESTERN MARYLAND

CITY           SKY/WX    TMP DP  RH WIND       PRES   REMARKS
OAKLAND*       CLEAR     64 N/A N/A SE8       30.13S
CUMBERLAND*    CLEAR     72  70  94 CALM      30.07S

$$

VAZ025>031-280700-
SHENANDOAH VALLEY

CITY           SKY/WX    TMP DP  RH WIND       PRES   REMARKS
WINCHESTER*    CLEAR     70  70 100 CALM      30.03S FOG
FRONT ROYAL*   MOCLDY    68  68 100 CALM      30.03R
LURAY*         FAIR      70  70 100 CALM      30.04S FOG
NEW MARKET*    CLOUDY    67  67 100 CALM      30.03S
STAUNTON*      PTCLDY    71  68  90 CALM      30.07F
WAYNESBORO*    CLOUDY    68  68 100 CALM      30.07S VSB 1/2

$$

WVZ021-048>050-054>055-280700-
EASTERN WEST VIRGINIA PANHANDLE

CITY           SKY/WX    TMP DP  RH WIND       PRES   REMARKS
MARTINSBURG    CLEAR     71  69  93 CALM      30.03S FOG
PETERSBURG*    PTCLDY   N/A N/A N/A CALM      30.05S FOG

$$

VAZ036>039-050-280700-
CENTRAL FOOTHILLS

CITY           SKY/WX    TMP DP  RH WIND       PRES   REMARKS
CHARLOTTESVILL CLOUDY    72  71  97 CALM      30.03S FOG
CULPEPER*      CLEAR     68  68  99 CALM      30.03S
ORANGE*        PTCLDY    72  70  94 CALM      30.04S
GORDONSVILLE*  FAIR      70  70 100 CALM      30.02S
WARRENTON*     FAIR      69  69 100 CALM      30.01S FOG

$$

VAZ055>057-280700-
NORTH AND CENTRAL PIEDMONT

CITY           SKY/WX    TMP DP  RH WIND       PRES   REMARKS
FREDERICKSBRG* CLEAR     72  71  98 CALM      30.01S
STAFFORD*      CLEAR     69  67  94 CALM      30.05F

$$

NCZ024-NYZ072-PAZ021-071-VAZ022-071-280700-
OTHER REGIONAL OBSERVATIONS

CITY           SKY/WX    TMP DP  RH WIND       PRES   REMARKS
NEW YORK CITY  CLEAR     77  67  71 MISG      30.04S
PHILADELPHIA   MOCLDY    76  71  85 CALM      30.02S
PITTSBURGH     CLEAR     73  64  73 NE3       30.03F
ROANOKE        PTCLDY    75  70  84 N12       30.07S
RICHMOND       LGT RAIN  76  72  87 S5        30.01S
RALEIGH        MOCLDY    77  70  79 S3        30.03R

$$

ANZ530>537-280700-
MARINE OBSERVATIONS

STATION/POSITION TIME  TEMP    WIND        PRES
                       AIR SEA DIR/SP/G
                 (UTC) (F)     (DEG/KT/KT) (MB)
THOMAS PT LIGHT  NOT AVBL
BALT KEY BRIDGE  0500   78     190/  2/  2 1016.0R
COVE POINT       0500   75     300/  2/  2 1016.8F
LEWISETTA        0500   76 82  220/  2/  2 1015.8F
SOLOMONS ISLAND  0500      82                N/A

$$




USA.gov is the U.S. government's official web portal to all federal, state and local government web resources and services.